Location: Bours
(43.2769°N, 0.0902°E)
Time: 11:56:47
(UTC+00:00)

Daily predictions for brighter satellites

Satellite Brightness Start Highest point End
(mag) Time Altitude Azimuth Time Altitude Azimuth Time Altitude Azimuth
COSMOS 2406 3.5 19:46:40 10° SSW 19:52:20 78° WNW 19:58:05 10° NNE
BREEZE-M DEB (TANK) 3.1 19:49:55 10° SSW 19:52:44 41° SE 20:00:10 10° ENE
Meteor 2-13 Rocket 4.5 19:47:51 10° S 19:53:55 73° E 20:00:00 10° NNE
Cosmos 2322 Rocket 4.2 19:51:30 10° N 19:54:32 14° NE 19:57:31 10° ENE
IRS-1A Rocket 4.4 19:49:57 10° SSE 19:55:22 60° ENE 20:00:46 10° N
CZ-4 R/B 4.4 19:53:01 10° SW 19:55:36 16° W 19:58:13 10° NW
Cosmos 1689 Rocket 2.8 19:54:46 10° N 19:57:29 54° WNW 20:00:10 10° SSW
Cosmos 1634 Rocket 4.5 19:51:21 10° NNW 19:57:35 67° W 20:03:43 10° S
USA 32 4.4 19:53:19 10° N 19:58:33 71° W 20:03:45 10° S
BREEZE-M DEB (TANK) 3.8 19:56:31 10° NW 19:59:20 49° NNE 20:06:33 10° E
MOS 1 4.4 19:54:02 10° SSE 19:59:38 68° ENE 20:05:16 10° N
SL-19 R/B 4.5 19:58:02 10° S 20:01:32 72° WSW 20:05:36 10° NNW
Resurs 01 Rocket 2.3 19:59:15 10° SE 20:03:22 39° ENE 20:07:31 10° N
Cosmos 2151 4.2 20:01:33 10° SE 20:04:55 23° E 20:08:19 10° NE
Cosmos 44 Rocket 4.1 20:00:33 10° SW 20:05:42 64° NW 20:10:56 10° NNE
Cosmos 2098 Rocket 3.1 20:03:28 10° SSE 20:06:13 31° E 20:09:21 10° NNE
ERS-2 2.4 20:03:22 10° NNE 20:06:54 46° E 20:10:23 10° S
Gbstr 26 Del rocket 4.3 20:04:53 10° NW 20:08:10 28° NNE 20:11:34 10° ENE
USA 186 3.8 20:09:36 10° SSW 20:12:13 25° W 20:14:42 10° NW
Cosmos 2180 Rocket 4.5 20:06:37 10° N 20:12:49 79° E 20:18:56 10° S
Ariane Rocket 3.0 20:12:37 10° SSE 20:17:42 86° ENE 20:22:47 10° NNW
Cosmos 1437 4.5 20:20:16 10° NW 20:22:40 27° W 20:25:04 10° SSW
SL-16 R/B 3.5 20:18:50 10° N 20:23:40 28° NE 20:28:03 12° ESE
Centaur D AC-28 4.4 20:21:18 10° SW 20:26:52 32° SSE 20:48:52 10° E
Cosmos 371 Rocket 3.4 20:23:57 10° NNW 20:28:45 64° ENE 20:32:51 14° SSE
ARIANE 5 R/B 4.1 20:26:51 13° ESE 20:29:41 22° ENE 20:33:07 10° NNE
Cosmos 1271 Rocket 3.9 20:31:15 10° NNE 20:34:44 28° ENE 20:36:55 18° ESE
SPOT 1/Viking Rocket 3.9 20:31:18 14° SE 20:35:41 52° ENE 20:40:44 10° N
USA 276 3.6 20:32:56 10° NW 20:35:50 32° NNE 20:38:32 11° E
BREEZE-M DEB (TANK) 2.6 20:34:16 10° WNW 20:37:08 64° NNE 20:43:14 13° ESE
Cosmos 1076 Rocket 3.5 20:32:52 10° S 20:37:12 87° WNW 20:41:36 10° N
Atlas Centaur 2 3.2 20:36:07 10° SSW 20:38:07 13° S 20:39:03 12° S
Cosmos 1697 Rocket 4.0 20:34:55 10° NW 20:40:03 36° WSW 20:45:10 10° S
OBJECT-B 3.7 20:38:19 10° SW 20:40:13 15° W 20:42:07 10° NW
ATLAS 2AS CENTAUR R/B 4.0 20:35:36 10° WSW 20:43:17 52° NW 20:50:48 10° NNE
Cosmos 923 Rocket 4.4 20:41:26 10° S 20:46:24 42° ESE 20:51:26 10° NNE
Terra 3.3 20:47:56 15° ESE 20:50:18 22° ENE 20:53:55 10° NNE
ATLAS 3B R/B 2.9 20:43:45 10° NW 20:50:55 84° WSW 20:56:42 18° SSE
SPOT 5 3.7 20:50:48 20° ESE 20:52:52 29° ENE 20:56:38 10° N
Cosmos 2082 Rocket 3.3 20:49:20 10° SW 20:54:45 46° WNW 21:00:12 10° NNE
Cosmos 1092 Rocket 4.0 20:48:54 10° S 20:55:04 67° E 21:01:21 10° NNE
Meteor 2-19 Rocket 4.4 20:49:10 10° S 20:55:12 78° E 21:01:16 10° N
USA 267 4.2 20:51:15 10° ENE 20:56:15 23° ESE 20:59:02 18° SSE
Cosmos 1633 3.9 20:53:14 10° SSW 20:56:38 39° WNW 21:00:04 10° N
Cosmos 2278 4.1 20:54:31 10° NNW 21:00:05 61° WSW 21:04:37 16° S
BREEZE-M DEB (TANK) 4.0 20:58:49 10° W 21:01:18 27° NNW 21:02:59 10° NE
ERS-1 Rocket 3.6 21:00:35 23° SE 21:03:13 41° ENE 21:07:54 10° N
Cosmos 332 Rocket 3.8 21:01:11 10° NNW 21:06:06 85° ENE 21:08:58 25° SSE
Cosmos 158 Rocket 4.1 21:01:09 10° SSW 21:06:16 79° WNW 21:11:35 10° NNE
Cosmos 2360 Rocket 3.5 21:02:15 10° N 21:07:02 27° NE 21:10:08 17° E
Cosmos 2026 Rocket 4.0 21:02:18 13° S 21:08:03 68° E 21:14:17 10° NNE
GP-B 3.0 21:09:31 10° N 21:13:58 69° E 21:16:14 28° SSE
ISS -3.8 21:11:47 10° WNW 21:15:09 72° SW 21:15:56 48° SSE
Cosmos 2333 Rocket 4.1 21:13:28 10° N 21:17:18 18° NE 21:20:38 11° E
Spot 2 Rocket 3.5 21:14:48 26° SSE 21:17:44 80° ENE 21:22:51 10° NNW
SPOT 3 Rocket 4.3 21:14:07 13° S 21:18:33 50° W 21:23:39 10° NNW
Meteor 1-26 Rocket 4.3 21:14:21 10° N 21:20:21 88° E 21:23:54 25° S
Cosmos 2112 Rocket 4.1 21:17:49 23° S 21:21:00 54° ESE 21:26:09 10° NNE
Cosmos 1680 Rocket 3.5 21:17:27 17° S 21:21:28 64° ESE 21:26:41 10° NNE
Cosmos 1812 3.5 21:18:58 10° N 21:22:32 34° ENE 21:23:03 33° E
CZ-2C R/B 4.1 21:21:25 10° N 21:25:53 62° WNW 21:30:16 10° SSW
Okean 3 Rocket 3.6 21:24:58 35° SSE 21:26:41 62° E 21:31:09 10° NNE
Cosmos 1980 Rocket 3.8 21:23:33 10° NW 21:28:18 29° WSW 21:32:51 11° SSW
USA 245 4.2 21:25:06 22° S 21:28:23 62° WSW 21:32:42 10° NNW
Cosmos 1933 4.5 21:34:30 10° NNW 21:38:17 39° W 21:40:21 22° SSW
Cosmos 2322 Rocket 2.1 21:33:55 10° NNW 21:39:35 76° ENE 21:41:46 38° SE
Resurs 01 Rocket 3.8 21:36:40 10° SW 21:39:59 21° W 21:43:20 10° NW
Cosmos 304 Rocket 4.4 21:35:38 10° NNW 21:40:15 48° WSW 21:42:24 28° SSW
Cosmos 1408 Rocket 3.9 21:40:12 43° ESE 21:40:35 44° E 21:44:43 10° NNE
Meteor 2-14 Rocket 4.4 21:43:59 31° S 21:47:07 75° E 21:53:15 10° NNE
CARTOSAT-1 4.3 21:46:36 30° SSW 21:48:21 47° W 21:52:32 10° NNW
Cosmos 2084 3.1 21:48:52 42° SSW 21:50:11 84° SE 21:54:21 10° NE
Cosmos 1553 Rocket 3.8 21:46:59 10° N 21:53:05 86° E 21:55:36 38° S
Cosmos 2266 Rocket 4.3 21:53:29 39° SE 21:55:07 48° E 22:01:03 10° NNE
Gbstr 26 Del rocket 2.6 21:51:25 10° WNW 21:55:13 77° SW 21:55:26 73° S
Cosmos 1862 3.1 21:57:03 75° SSE 21:57:21 84° E 22:01:21 10° N
Cosmos 2219 Rocket 3.5 21:56:09 10° N 22:01:00 29° NE 22:02:58 23° E
Cosmos 1624 Rocket 3.9 21:56:28 10° NNW 22:01:43 82° ENE 22:02:57 53° SSE
NOSS 2-1 (E) 3.7 22:05:22 43° NNE 22:05:22 43° NNE 22:07:47 10° NE
Cosmos 1782 4.1 22:00:51 10° NNW 22:04:29 33° W 22:05:38 28° SW
ARIANE 5 R/B 3.7 22:04:24 29° SW 22:05:54 39° W 22:10:05 10° NNW
Cosmos 2228 Rocket 4.3 22:02:15 10° NNE 22:06:05 29° ENE 22:06:05 29° ENE
Cosmos 1515 Rocket 3.4 22:01:57 10° N 22:06:23 73° E 22:06:43 69° ESE
H-2A R/B 3.4 22:03:02 10° NNE 22:07:14 71° ESE 22:07:14 71° ESE
SL-16 R/B 2.7 22:02:33 10° NW 22:08:01 49° WSW 22:09:55 35° SSW
COSMOS 2455 3.2 22:09:10 42° ESE 22:09:17 42° ESE 22:14:53 10° NE
NOSS 3-1 (C) 4.5 22:02:43 10° NNW 22:10:01 55° NE 22:14:30 29° ESE
USA 276 3.9 22:09:03 10° WNW 22:10:46 28° W 22:10:46 28° W
Cosmos 2237 4.2 22:06:34 10° NNW 22:12:18 79° WSW 22:13:45 51° S
Cosmos 1420 Rocket 4.1 22:07:24 10° NNW 22:12:43 68° ENE 22:13:43 55° ESE
Cosmos 1655 Rocket 3.9 22:12:44 44° S 22:14:55 78° E 22:21:19 10° N
COSMOS 2428 3.9 22:10:43 10° N 22:15:47 31° NE 22:17:35 26° E
Meteor 2-6 Rocket 4.2 22:12:03 10° NNW 22:17:26 68° W 22:18:52 47° SSW
Cosmos 1151 Rocket 4.4 22:15:27 10° NNW 22:19:21 33° W 22:20:31 28° WSW
S3M 4.0 22:16:59 10° N 22:23:25 84° W 22:25:25 47° S
ATLAS 5 CENTAUR R/B 3.7 22:22:42 10° NNW 22:27:29 29° NE 22:30:39 19° E
Terra 2.6 22:26:49 39° SW 22:27:45 43° W 22:32:18 10° NNW
SPOT 5 4.1 22:30:02 24° WSW 22:30:56 26° W 22:34:37 10° NW
Cosmos 1452 Rocket 3.8 22:27:05 10° N 22:32:13 51° ENE 22:32:49 49° E
ALOS 2 4.2 22:33:57 24° ENE 22:33:57 24° ENE 22:37:27 10° NNE
USA 267 3.1 22:33:14 10° NE 22:39:49 84° SE 22:46:07 11° SW
SL-27 R/B 4.0 22:39:50 33° WNW 22:39:55 33° WNW 22:43:13 10° N
Cosmos 2056 Rocket 4.1 22:36:40 10° NNW 22:41:45 45° WSW 22:42:28 42° SW
Meteor 1-27 Rocket 3.6 22:37:45 10° N 22:43:26 88° W 22:44:14 68° S
NOSS 3-1 (A) 4.5 22:37:23 10° NNW 22:44:43 56° NE 22:48:48 31° ESE
Cosmos 1805 Rocket 3.9 22:49:13 61° NE 22:49:13 61° NE 22:52:59 10° NNE
Cosmos 2360 Rocket 2.6 22:45:52 10° NW 22:51:17 49° WSW 22:51:53 47° SW
IRIDIUM 104 4.2 22:46:46 10° N 22:52:01 86° W 22:52:18 80° SSW
Meteor 1-20 Rocket 4.2 22:54:51 65° ESE 22:55:00 65° E 23:00:37 10° NNE
Cosmos 1500 Rocket 4.3 22:59:40 45° W 22:59:44 46° WNW 23:04:01 10° N
IRIDIUM 114 4.3 22:55:56 10° N 23:01:09 71° W 23:01:25 69° WSW
Cosmos 2333 Rocket 2.0 22:56:37 10° NNW 23:02:18 83° WSW 23:02:38 78° SSW
Meteor 1-22 4.4 23:03:01 83° SSE 23:03:11 86° E 23:08:43 10° N
Cosmos 1244 Rocket 4.5 23:03:47 60° ESE 23:04:17 62° E 23:10:22 10° NNE
Cosmos 972 Rocket 4.2 23:07:27 60° WSW 23:08:04 66° WNW 23:13:07 10° NNE
COBE Rocket 4.0 23:09:07 64° WNW 23:09:07 64° WNW 23:13:22 10° NNW
Cosmos 2322 3.6 23:06:48 10° NNW 23:12:32 73° WSW 23:12:44 72° SW
USA 234 3.5 23:10:02 36° ESE 23:12:50 66° NE 23:19:20 10° NW
NOSS 0 Rocket 4.4 23:08:39 10° NNW 23:14:44 52° ENE 23:16:01 45° E
Cosmos 2297 Rocket 3.5 23:17:11 27° E 23:17:11 27° E 23:20:51 10° NE
Cosmos 468 4.4 23:16:08 80° WNW 23:16:08 80° WNW 23:21:23 10° NNE
Lacrosse 5 3.8 23:21:59 19° ENE 23:21:59 19° ENE 23:23:37 10° ENE
Cosmos 2237 Rocket 3.2 23:17:36 10° N 23:22:53 38° ENE 23:24:02 34° E
Cosmos 2322 Rocket 4.2 23:19:44 10° WNW 23:22:53 15° W 23:23:35 15° WSW
Meteor 1-18 Rocket 4.3 23:20:51 10° N 23:26:42 68° ENE 23:26:57 67° E
Cosmos 2227 Rocket 3.6 23:28:53 25° E 23:28:53 25° E 23:32:26 10° NE
Sich 1 3.9 23:28:46 47° NW 23:28:46 47° NW 23:32:21 10° N
Meteor 1-25 Rocket 4.2 23:30:16 66° WSW 23:30:37 68° WNW 23:36:11 10° N
Cosmos 1633 Rocket 3.8 23:33:06 48° NNE 23:33:06 48° NNE 23:36:19 10° N
Cosmos 2285 Rocket 4.0 23:25:55 10° NNW 23:32:07 61° WSW 23:32:32 60° SW
Cosmos 494 Rocket 4.1 23:33:16 70° NW 23:33:16 70° NW 23:38:15 10° NNE
Cosmos 1666 Rocket 4.2 23:37:07 53° N 23:37:07 53° N 23:40:35 10° N
Cosmos 2219 Rocket 2.8 23:39:49 10° NW 23:44:40 44° W 23:44:40 44° W
SL-08 R/B 4.3 23:45:17 78° SSW 23:45:45 87° W 23:51:58 10° N
Cosmos 1269 Rocket 4.5 23:50:05 52° ENE 23:50:05 52° ENE 23:54:29 10° NNE
Meteor 1-19 Rocket 4.3 23:44:08 10° NNW 23:49:32 65° W 23:49:32 65° W
SL-16 R/B 4.0 23:45:26 10° N 23:49:58 24° NE 23:52:42 17° E
